| time (UTC) | temp F | wind direction | speed MPH | gust MPH | rain 1hr in | rain 24hr in | rain mn in | humidity % | barometer mb |
| 20260904023015 | 64 | 285 | 0.0 | 0.0 | 0.00 | 0.16 | 0.04 | 93 | 1012.9 |
| 20260904021522 | 65 | 285 | 0.0 | 0.0 | 0.00 | 0.16 | 0.04 | 92 | 1013.1 |
| 20260904020012 | 65 | 285 | 0.0 | 0.0 | 0.00 | 0.16 | 0.04 | 91 | 1013.2 |
| 20260904014511 | 66 | 285 | 0.0 | 0.0 | 0.00 | 0.21 | 0.04 | 91 | 1013.2 |
| 20260904013012 | 66 | 285 | 0.0 | 0.0 | 0.00 | 0.21 | 0.04 | 92 | 1013.2 |
| 20260904011511 | 67 | 285 | 0.0 | 0.0 | 0.00 | 0.21 | 0.04 | 92 | 1013.2 |
| 20260904010010 | 67 | 285 | 0.0 | 0.0 | 0.00 | 0.21 | 0.04 | 91 | 1013.2 |
| 20260904004510 | 68 | 285 | 0.0 | 0.0 | 0.00 | 0.21 | 0.04 | 88 | 1013.1 |
| 20260904003008 | 68 | 284 | 0.0 | 0.0 | 0.00 | 0.21 | 0.04 | 87 | 1013.0 |
| 20260904001508 | 69 | 284 | 0.0 | 0.0 | 0.00 | 0.21 | 0.04 | 89 | 1012.9 |
| 20260904000008 | 69 | 284 | 0.0 | 0.0 | 0.00 | 0.21 | 0.04 | 85 | 1012.9 |
| 20260903234507 | 70 | 284 | 0.0 | 0.0 | 0.00 | 0.21 | 0.04 | 84 | 1012.7 |
| 20260903233008 | 70 | 284 | 0.0 | 0.0 | 0.00 | 0.21 | 0.04 | 85 | 1012.5 |
| 20260903231505 | 71 | 284 | 0.0 | 0.0 | 0.00 | 0.21 | 0.04 | 84 | 1012.4 |
| 20260903230006 | 73 | 284 | 0.0 | 0.0 | 0.00 | 0.21 | 0.04 | 82 | 1012.4 |
| 20260903224515 | 76 | 284 | 0.0 | 0.0 | 0.00 | 0.21 | 0.04 | 77 | 1012.5 |
| 20260903223004 | 77 | 284 | 0.0 | 0.0 | 0.00 | 0.21 | 0.04 | 72 | 1012.3 |
| 20260903221505 | 78 | 284 | 0.0 | 0.0 | 0.00 | 0.21 | 0.04 | 68 | 1012.4 |
| 20260903220006 | 79 | 292 | 0.0 | 1.0 | 0.00 | 0.21 | 0.04 | 67 | 1012.2 |
| 20260903214503 | 79 | 277 | 0.0 | 5.0 | 0.00 | 0.21 | 0.04 | 67 | 1012.3 |
| 20260903213005 | 79 | 279 | 0.0 | 2.0 | 0.00 | 0.21 | 0.04 | 67 | 1012.3 |
| 20260903211501 | 79 | 278 | 1.0 | 6.0 | 0.00 | 0.21 | 0.04 | 66 | 1012.4 |
| 20260903204602 | 81 | 288 | 4.0 | 9.0 | 0.00 | 0.21 | 0.04 | 63 | 1012.5 |
| 20260903203058 | 81 | 294 | 0.0 | 11.0 | 0.00 | 0.21 | 0.04 | 64 | 1012.4 |
| 20260903201601 | 81 | 355 | 2.0 | 9.0 | 0.00 | 0.21 | 0.04 | 64 | 1012.7 |
| 20260903200059 | 80 | 298 | 0.0 | 12.0 | 0.00 | 0.21 | 0.04 | 66 | 1012.6 |
| 20260903194556 | 80 | 288 | 5.0 | 12.0 | 0.00 | 0.21 | 0.04 | 63 | 1012.6 |
| 20260903193051 | 80 | 288 | 2.0 | 9.0 | 0.00 | 0.21 | 0.04 | 63 | 1012.8 |
| 20260903191549 | 80 | 279 | 2.0 | 11.0 | 0.00 | 0.21 | 0.04 | 67 | 1013.0 |
| 20260903190048 | 80 | 286 | 3.0 | 11.0 | 0.00 | 0.21 | 0.04 | 69 | 1013.0 |
| 20260903184545 | 79 | 298 | 3.0 | 13.0 | 0.00 | 0.21 | 0.04 | 74 | 1013.0 |
| 20260903183041 | 78 | 277 | 1.0 | 11.0 | 0.00 | 0.21 | 0.04 | 76 | 1013.1 |
| 20260903181540 | 78 | 217 | 5.0 | 11.0 | 0.00 | 0.21 | 0.04 | 75 | 1013.2 |
| 20260903180041 | 77 | 263 | 1.0 | 10.0 | 0.00 | 0.21 | 0.04 | 82 | 1013.3 |
| 20260903174534 | 76 | 296 | 0.0 | 5.0 | 0.00 | 0.21 | 0.04 | 87 | 1013.4 |
| 20260903173030 | 74 | 281 | 1.0 | 4.0 | 0.00 | 0.21 | 0.04 | 89 | 1013.4 |
| 20260903171526 | 73 | 283 | 1.0 | 6.0 | 0.00 | 0.21 | 0.04 | 94 | 1013.6 |
| 20260903170024 | 71 | 268 | 1.0 | 5.0 | 0.03 | 0.21 | 0.04 | 98 | 1013.8 |
| 20260903164522 | 71 | 269 | 0.0 | 5.0 | 0.03 | 0.22 | 0.04 | 99 | 1014.0 |
| 20260903163019 | 70 | 295 | 0.0 | 0.0 | 0.03 | 0.22 | 0.04 | 99 | 1014.0 |
| 20260903161518 | 69 | 295 | 0.0 | 3.0 | 0.03 | 0.22 | 0.04 | 98 | 1014.2 |
| 20260903160019 | 69 | 299 | 0.0 | 0.0 | 0.00 | 0.19 | 0.01 | 98 | 1014.2 |
| 20260903154515 | 69 | 311 | 0.0 | 0.0 | 0.00 | 0.20 | 0.01 | 98 | 1014.3 |
| 20260903153015 | 69 | 311 | 0.0 | 0.0 | 0.00 | 0.20 | 0.01 | 98 | 1014.3 |
| 20260903151514 | 69 | 311 | 0.0 | 0.0 | 0.00 | 0.20 | 0.01 | 98 | 1014.3 |
| 20260903150013 | 69 | 311 | 0.0 | 0.0 | 0.00 | 0.20 | 0.01 | 97 | 1014.3 |
| 20260903144518 | 69 | 311 | 0.0 | 3.0 | 0.00 | 0.20 | 0.01 | 97 | 1014.3 |
| 20260903143013 | 69 | 196 | 0.0 | 1.0 | 0.00 | 0.20 | 0.01 | 96 | 1014.3 |
| 20260903141513 | 69 | 155 | 0.0 | 0.0 | 0.00 | 0.20 | 0.01 | 97 | 1014.1 |
| 20260903140014 | 69 | 155 | 0.0 | 0.0 | 0.00 | 0.20 | 0.01 | 97 | 1014.0 |
| 20260903134508 | 69 | 155 | 0.0 | 0.0 | 0.00 | 0.20 | 0.01 | 97 | 1014.0 |
| 20260903133007 | 68 | 155 | 0.0 | 0.0 | 0.00 | 0.20 | 0.01 | 97 | 1014.0 |
| 20260903131506 | 68 | 155 | 0.0 | 0.0 | 0.00 | 0.20 | 0.01 | 98 | 1014.2 |
| 20260903130005 | 68 | 155 | 0.0 | 0.0 | 0.00 | 0.20 | 0.01 | 98 | 1014.0 |
| 20260903124504 | 68 | 155 | 0.0 | 0.0 | 0.00 | 0.20 | 0.01 | 98 | 1014.3 |
| 20260903123005 | 68 | 155 | 0.0 | 0.0 | 0.00 | 0.20 | 0.01 | 98 | 1014.3 |
| 20260903121506 | 68 | 155 | 0.0 | 0.0 | 0.01 | 0.20 | 0.01 | 98 | 1014.2 |
| 20260903120002 | 67 | 155 | 0.0 | 0.0 | 0.01 | 0.20 | 0.01 | 98 | 1014.1 |
| 20260903114602 | 67 | 156 | 0.0 | 3.0 | 0.01 | 0.20 | 0.01 | 98 | 1014.1 |
| 20260903113059 | 67 | 190 | 0.0 | 0.0 | 0.01 | 0.20 | 0.01 | 98 | 1014.1 |
| 20260903111607 | 67 | 190 | 0.0 | 0.0 | 0.00 | 0.19 | 0.00 | 97 | 1014.2 |
| 20260903110100 | 67 | 190 | 0.0 | 0.0 | 0.00 | 0.19 | 0.00 | 97 | 1014.2 |
| 20260903104621 | 67 | 201 | 0.0 | 1.0 | 0.00 | 0.19 | 0.00 | 97 | 1014.1 |
| 20260903103104 | 67 | 201 | 0.0 | 0.0 | 0.00 | 0.19 | 0.00 | 97 | 1014.0 |
| 20260903101557 | 67 | 201 | 0.0 | 0.0 | 0.00 | 0.19 | 0.00 | 98 | 1014.2 |
| 20260903100057 | 66 | 201 | 0.0 | 0.0 | 0.00 | 0.19 | 0.00 | 98 | 1013.9 |
| 20260903094556 | 66 | 202 | 0.0 | 0.0 | 0.00 | 0.19 | 0.00 | 97 | 1013.7 |
| 20260903093103 | 67 | 202 | 0.0 | 1.0 | 0.00 | 0.19 | 0.00 | 98 | 1013.8 |
| 20260903091554 | 67 | 201 | 0.0 | 0.0 | 0.00 | 0.19 | 0.00 | 98 | 1013.6 |
| 20260903090053 | 66 | 220 | 0.0 | 1.0 | 0.00 | 0.19 | 0.00 | 99 | 1013.7 |
| 20260903084556 | 66 | 220 | 0.0 | 0.0 | 0.00 | 0.19 | 0.00 | 99 | 1013.7 |
| 20260903083057 | 66 | 223 | 0.0 | 0.0 | 0.00 | 0.19 | 0.00 | 98 | 1013.7 |
| 20260903081611 | 66 | 113 | 0.0 | 0.0 | 0.00 | 0.19 | 0.00 | 98 | 1013.9 |
| 20260903080050 | 66 | 113 | 0.0 | 0.0 | 0.00 | 0.19 | 0.00 | 98 | 1014.0 |
| 20260903074554 | 66 | 113 | 0.0 | 0.0 | 0.00 | 0.19 | 0.00 | 98 | 1013.9 |
| 20260903073048 | 66 | 113 | 0.0 | 0.0 | 0.00 | 0.19 | 0.00 | 98 | 1014.2 |
| 20260903071553 | 66 | 113 | 0.0 | 0.0 | 0.00 | 0.19 | 0.00 | 98 | 1014.2 |
| 20260903070047 | 66 | 113 | 0.0 | 0.0 | 0.00 | 0.19 | 0.00 | 98 | 1014.2 |
| 20260903064550 | 66 | 113 | 0.0 | 0.0 | 0.00 | 0.19 | 0.00 | 98 | 1014.1 |
| 20260903063050 | 66 | 113 | 0.0 | 0.0 | 0.00 | 0.19 | 0.00 | 98 | 1014.1 |
| 20260903061546 | 66 | 113 | 0.0 | 0.0 | 0.00 | 0.19 | 0.00 | 98 | 1013.9 |
| 20260903060046 | 66 | 113 | 0.0 | 0.0 | 0.00 | 0.19 | 0.00 | 98 | 1014.0 |
| 20260903054546 | 66 | 113 | 0.0 | 3.0 | 0.00 | 0.19 | 0.00 | 97 | 1014.0 |
| 20260903053044 | 66 | 115 | 0.0 | 0.0 | 0.00 | 0.19 | 0.00 | 97 | 1014.1 |
| 20260903051544 | 66 | 115 | 0.0 | 0.0 | 0.00 | 0.19 | 0.00 | 97 | 1014.1 |
| 20260903050047 | 66 | 115 | 0.0 | 5.0 | 0.00 | 0.19 | 0.00 | 97 | 1014.1 |
| 20260903044546 | 65 | 111 | 0.0 | 4.0 | 0.00 | 0.19 | 0.00 | 98 | 1014.5 |
| 20260903043041 | 65 | 111 | 0.0 | 0.0 | 0.00 | 0.19 | 0.00 | 98 | 1014.7 |
| 20260903041545 | 66 | 111 | 0.0 | 3.0 | 0.01 | 0.19 | 0.00 | 97 | 1014.6 |
| 20260903040036 | 65 | 137 | 0.0 | 5.0 | 0.03 | 0.19 | 0.00 | 98 | 1013.8 |
| 20260903034537 | 65 | 155 | 0.0 | 7.0 | 0.05 | 0.19 | 0.19 | 98 | 1013.6 |
| 20260903033033 | 65 | 102 | 0.0 | 6.0 | 0.07 | 0.19 | 0.19 | 98 | 1014.3 |
| 20260903031535 | 65 | 150 | 5.0 | 11.0 | 0.10 | 0.18 | 0.18 | 97 | 1014.4 |
| 20260903030030 | 65 | 105 | 1.0 | 7.0 | 0.08 | 0.16 | 0.16 | 97 | 1015.1 |
| 20260903024529 | 65 | 109 | 0.0 | 5.0 | 0.08 | 0.14 | 0.14 | 97 | 1015.3 |